Franklin, PA

10:43 PM EDT on March 24, 2017 (GMT -0400)
Venango Regional

Weather History for KFKL - November, 2011

Change the Weather History Date:

Saturday, November 12, 2011

  Actual Average Record
Temperature  
Mean Temperature 44 °F -  
Max Temperature 57 °F 47 °F 70 °F (1927)
Min Temperature 30 °F 34 °F 12 °F (1926)
Degree Days  
Heating Degree Days 22    
Moisture  
Dew Point 28 °F    
Average Humidity 58    
Maximum Humidity 80    
Minimum Humidity 38    
Precipitation  
Precipitation 0.00 in - - ()
Sea Level Pressure  
Sea Level Pressure 29.97 in    
Wind  
Wind Speed 10 mph (SSW)    
Max Wind Speed 16 mph    
Max Gust Speed 23 mph    
Visibility 10 miles    
Events      
Averages and records for this station are not official NWS values.
T = Trace of Precipitation, MM = Missing Value Source: NWS Daily Summary

Daily Weather History Graph

Daily Weather History Graph

Search for Another Location

Airport or City:

Trip Planner

Search our weather history database for the weather conditions in past years. The results will help you decide how hot, cold, wet, or windy it might be!

Date:

Astronomy

Nov. 12, 2011 Rise Set
Actual Time 7:03 AM EST 5:02 PM EST
Civil Twilight 6:34 AM EST 5:32 PM EST
Nautical Twilight 6:01 AM EST 6:05 PM EST
Astronomical Twilight 5:28 AM EST 6:37 PM EST
Moon 6:16 PM EST (11/12) 8:46 AM EST (11/12)
Length of Visible Light 10h 57m
Length of Day
9h 58m
Full, 97% of the Moon is Illuminated
Nov 12
Full
Nov 18
Last Quarter
Nov 25
New
Dec 2
First Quarter
Dec 10
Full

Hourly Weather History & Observations

Time (EST) Temp. Windchill Dew Point Humidity Pressure Visibility Wind Dir Wind Speed Gust Speed Precip Events Conditions
12:15 AM 33.8 °F 27.0 °F 23.0 °F 65% 29.98 in 10.0 mi SSW 8.1 mph - N/A   Overcast
12:55 AM 30.2 °F 23.4 °F 24.8 °F 80% 29.98 in 10.0 mi South 6.9 mph - N/A   Overcast
1:15 AM 30.2 °F 23.4 °F 24.8 °F 80% 29.97 in 10.0 mi SSE 6.9 mph - N/A   Mostly Cloudy
1:35 AM 30.2 °F 23.4 °F 24.8 °F 80% 29.96 in 10.0 mi South 6.9 mph - N/A   Mostly Cloudy
1:55 AM 30.2 °F 22.6 °F 23.0 °F 75% 29.95 in 10.0 mi South 8.1 mph - N/A   Partly Cloudy
2:15 AM 30.2 °F 23.4 °F 24.8 °F 80% 29.95 in 10.0 mi South 6.9 mph - N/A   Partly Cloudy
2:35 AM 30.2 °F 23.4 °F 24.8 °F 80% 29.95 in 10.0 mi South 6.9 mph - N/A   Partly Cloudy
2:55 AM 30.2 °F 21.9 °F 23.0 °F 75% 29.94 in 10.0 mi South 9.2 mph - N/A   Clear
3:15 AM 30.2 °F 21.9 °F 23.0 °F 75% 29.92 in 10.0 mi South 9.2 mph - N/A   Clear
3:35 AM 30.2 °F 21.3 °F 23.0 °F 75% 29.91 in 10.0 mi South 10.4 mph - N/A   Clear
3:55 AM 30.2 °F 21.9 °F 24.8 °F 80% 29.91 in 10.0 mi South 9.2 mph - N/A   Clear
4:15 AM 30.2 °F 21.9 °F 23.0 °F 75% 29.91 in 10.0 mi South 9.2 mph - N/A   Clear
5:15 AM 30.2 °F 21.3 °F 23.0 °F 75% 29.90 in 10.0 mi South 10.4 mph - N/A   Clear
5:35 AM 30.2 °F 21.9 °F 23.0 °F 75% 29.90 in 10.0 mi South 9.2 mph - N/A   Clear
5:55 AM 30.2 °F 21.9 °F 21.2 °F 69% 29.91 in 10.0 mi South 9.2 mph - N/A   Clear
6:15 AM 30.2 °F 21.3 °F 21.2 °F 69% 29.90 in 10.0 mi South 10.4 mph - N/A   Clear
6:35 AM 32.0 °F 22.5 °F 23.0 °F 69% 29.91 in 10.0 mi SSW 12.7 mph - N/A   Clear
6:55 AM 32.0 °F 23.0 °F 24.8 °F 75% 29.91 in 10.0 mi South 11.5 mph - N/A   Clear
7:15 AM 30.2 °F 21.9 °F 23.0 °F 75% 29.91 in 10.0 mi South 9.2 mph - N/A   Clear
7:35 AM 32.0 °F 24.2 °F 23.0 °F 69% 29.92 in 10.0 mi South 9.2 mph - N/A   Clear
7:55 AM 33.8 °F 25.3 °F 24.8 °F 70% 29.93 in 10.0 mi South 11.5 mph - N/A   Clear
8:15 AM 35.6 °F 27.5 °F 24.8 °F 65% 29.94 in 10.0 mi SSW 11.5 mph - N/A   Clear
8:35 AM 37.4 °F 30.3 °F 24.8 °F 60% 29.95 in 10.0 mi SSW 10.4 mph 16.1 mph N/A   Clear
8:55 AM 37.4 °F 28.9 °F 26.6 °F 65% 29.95 in 10.0 mi SSW 13.8 mph 18.4 mph N/A   Clear
9:15 AM 39.2 °F 30.5 °F 26.6 °F 61% 29.95 in 10.0 mi SW 16.1 mph 20.7 mph N/A   Clear
9:35 AM 41.0 °F 32.8 °F 28.4 °F 61% 29.96 in 10.0 mi SSW 16.1 mph 20.7 mph N/A   Clear
10:15 AM 44.6 °F 38.4 °F 28.4 °F 53% 29.97 in 10.0 mi SSW 12.7 mph 18.4 mph N/A   Clear
10:35 AM 46.4 °F 40.4 °F 30.2 °F 53% 29.98 in 10.0 mi SSW 13.8 mph 21.9 mph N/A   Clear
10:55 AM 48.2 °F - 30.2 °F 50% 29.99 in 10.0 mi WSW 16.1 mph 23.0 mph N/A   Clear
11:15 AM 48.2 °F - 30.2 °F 50% 29.99 in 10.0 mi SW 12.7 mph 20.7 mph N/A   Clear
11:35 AM 48.2 °F - 32.0 °F 54% 29.99 in 10.0 mi SW 12.7 mph 18.4 mph N/A   Clear
11:55 AM 51.8 °F - 32.0 °F 47% 29.99 in 10.0 mi WSW 13.8 mph 20.7 mph N/A   Clear
12:15 PM 51.8 °F - 32.0 °F 47% 29.99 in 10.0 mi SW 16.1 mph 19.6 mph N/A   Clear
12:35 PM 53.6 °F - 32.0 °F 44% 29.99 in 10.0 mi SW 9.2 mph 17.3 mph N/A   Clear
12:55 PM 53.6 °F - 33.8 °F 47% 29.98 in 10.0 mi SW 11.5 mph 19.6 mph N/A   Clear
1:15 PM 55.4 °F - 33.8 °F 44% 29.98 in 10.0 mi SW 12.7 mph 21.9 mph N/A   Clear
1:35 PM 55.4 °F - 33.8 °F 44% 29.98 in 10.0 mi WSW 16.1 mph 23.0 mph N/A   Clear
1:55 PM 57.2 °F - 33.8 °F 41% 29.97 in 10.0 mi SSW 16.1 mph 20.7 mph N/A   Clear
2:15 PM 57.2 °F - 33.8 °F 41% 29.97 in 10.0 mi SW 16.1 mph 20.7 mph N/A   Clear
2:35 PM 57.2 °F - 33.8 °F 41% 29.97 in 10.0 mi SW 15.0 mph 19.6 mph N/A   Clear
2:55 PM 57.2 °F - 32.0 °F 38% 29.97 in 10.0 mi SW 10.4 mph 23.0 mph N/A   Clear
3:15 PM 57.2 °F - 33.8 °F 41% 29.97 in 10.0 mi SSW 13.8 mph 23.0 mph N/A   Clear
3:35 PM 57.2 °F - 33.8 °F 41% 29.98 in 10.0 mi SSW 16.1 mph 21.9 mph N/A   Clear
3:55 PM 55.4 °F - 32.0 °F 41% 29.98 in 10.0 mi SW 12.7 mph 19.6 mph N/A   Clear
4:15 PM 55.4 °F - 30.2 °F 38% 29.99 in 10.0 mi SSW 10.4 mph 17.3 mph N/A   Clear
4:35 PM 53.6 °F - 30.2 °F 41% 29.99 in 10.0 mi SSW 10.4 mph - N/A   Clear
4:55 PM 53.6 °F - 30.2 °F 41% 29.99 in 10.0 mi SSW 9.2 mph - N/A   Clear
5:15 PM 51.8 °F - 30.2 °F 44% 29.99 in 10.0 mi SSW 10.4 mph - N/A   Clear
5:35 PM 50.0 °F - 30.2 °F 47% 29.99 in 10.0 mi South 10.4 mph - N/A   Clear
5:55 PM 48.2 °F - 30.2 °F 50% 30.00 in 10.0 mi South 10.4 mph - N/A   Clear
6:15 PM 48.2 °F - 30.2 °F 50% 30.00 in 10.0 mi South 10.4 mph - N/A   Clear
6:35 PM 48.2 °F - 30.2 °F 50% 30.01 in 10.0 mi South 10.4 mph - N/A   Clear
6:55 PM 48.2 °F - 30.2 °F 50% 30.01 in 10.0 mi SSW 11.5 mph - N/A   Clear
7:15 PM 50.0 °F - 30.2 °F 47% 30.01 in 10.0 mi SSW 12.7 mph 17.3 mph N/A   Clear
7:35 PM 50.0 °F - 30.2 °F 47% 30.01 in 10.0 mi SSW 11.5 mph - N/A   Clear
7:55 PM 48.2 °F - 30.2 °F 50% 30.01 in 10.0 mi South 12.7 mph 18.4 mph N/A   Clear
8:35 PM 46.4 °F 41.1 °F 30.2 °F 53% 30.01 in 10.0 mi South 11.5 mph - N/A   Clear
8:55 PM 46.4 °F 41.9 °F 30.2 °F 53% 30.01 in 10.0 mi South 9.2 mph - N/A   Clear
9:15 PM 46.4 °F 41.5 °F 30.2 °F 53% 30.01 in 10.0 mi South 10.4 mph - N/A   Clear
9:35 PM 46.4 °F 41.5 °F 28.4 °F 50% 30.01 in 10.0 mi South 10.4 mph - N/A   Clear
9:55 PM 46.4 °F 41.1 °F 28.4 °F 50% 30.00 in 10.0 mi South 11.5 mph - N/A   Clear
10:15 PM 46.4 °F 40.7 °F 28.4 °F 50% 30.00 in 10.0 mi South 12.7 mph - N/A   Clear
10:35 PM 46.4 °F 41.5 °F 28.4 °F 50% 29.99 in 10.0 mi South 10.4 mph - N/A   Clear
10:55 PM 46.4 °F 41.1 °F 28.4 °F 50% 29.99 in 10.0 mi South 11.5 mph - N/A   Clear
11:15 PM 46.4 °F 41.9 °F 28.4 °F 50% 29.99 in 10.0 mi South 9.2 mph - N/A   Clear
11:35 PM 46.4 °F 42.4 °F 28.4 °F 50% 29.99 in 10.0 mi South 8.1 mph - N/A   Clear
11:55 PM 46.4 °F 41.9 °F 28.4 °F 50% 29.99 in 10.0 mi South 9.2 mph - N/A   Clear